星链-36529(STARLINK-36529)

导读

STARLINK-36529是美国SpaceX公司星链(Starlink)卫星互联网项目中的一颗低轨卫星,于2026年1月14日发射入轨。星链项目旨在通过近地轨道星座为全球提供高速低延迟宽带互联网服务,尤其覆盖偏远地区。该卫星继承星链技术架构,运行在数百公里近地轨道,与其他卫星协同工作,推进星链全球覆盖目标,进一步扩大星座服务规模,提升网络覆盖密度,助力实现全球无缝互联的卫星互联网愿景。

基本信息
目录编号:
67457
目录名称:
STARLINK-36529
国际标识:
2026-008N
轨道中心:
EARTH
卫星名称:
星链-36529
卫星全名:
星链-36529(STARLINK-36529)
卫星状态:
在轨 (已飞行240 天)
发射日期:
2026-01-14 UTC
国别 :
美国 (US)
星等 :
--
该卫星已列入 空间交会检测服务 Space Conjunction Data Service (SCDS) ,当前飞行风险评估等级: 高风险
轨道信息
数据来源 国际轨道数据
星历时间: 2026-09-11T08:26:56+0800
17小时前
查看轨道信息
半长轴: 6861.149km
偏心率: 0.0001357
轨道倾角: 43.001°
近地点辐角 268.737°
升交点赤经 238.777°
平近点角 91.333°
近地点: 482.08km
远地点: 483.944km
周期: 94.266分钟
每日圈数: 15.275926
详细信息
固有亮度:
5
最大亮度:
2.5
卫星平台:
Starlink V1.0
覆盖范围:
全球
运营商:
太空探索技术公司
运营商所在国:
美国
制造商(研发单位):
太空探索技术公司
制造商所在国:
美国
使用方式:
暂无
卫星简介
Starlink 计划是 SpaceX 推出的全球卫星互联网项目,通过发射低轨道卫星,为全球尤其是偏远地区提供高速、低延迟的互联网服务。自 2019 年起,Starlink 已部署数千颗卫星,旨在缩小全球数字鸿沟,推动互联网普及。该项目还为军事、航空等行业提供通信支持,带来广泛经济效益。
2D轨道图
3D轨道图
轨道高度分析图
轨道倾角分析图
轨道综合分析图
查看轨道综合分析图
交会数据列表
事件ID 空间交会对象 最接近时刻(TCA) 交会距离 交会风险概率(CRP) 交会风险指数(CRI) 操作
CDM_260911-230505-751206-745723
2026-09-11T
23:05:54+0000
0.348 km
远距离
3.370265E-4 高风险 0.86
CDM_260913-144706-745706-794221
2026-09-13T
14:47:56+0000
0.495 km
远距离
5.381998E-5 中风险 0.7
CDM_260912-223805-561006-745721
2026-09-12T
22:38:52+0000
0.907 km
远距离
2.882764E-5 中风险 0.64
CDM_260913-162206-745706-794221
2026-09-13T
16:22:05+0000
0.714 km
远距离
1.751507E-5 中风险 0.6
CDM_260912-170805-751206-745722
2026-09-12T
17:08:41+0000
1.078 km
极远距离
1.578896E-5 中风险 0.59
CDM_260911-140906-674806-745724
UMBRA-11 (66748)
2026-09-11T
14:09:58+0000
1.263 km
极远距离
1.007777E-5 中风险 0.55
CDM_260911-213105-751206-745724
2026-09-11T
21:31:45+0000
1.468 km
极远距离
5.48062E-6 低风险 0.5
CDM_260912-210405-561006-745721
2026-09-12T
21:04:43+0000
1.525 km
极远距离
4.886435E-6 低风险 0.49
CDM_260913-133305-561006-745721
2026-09-13T
13:33:20+0000
1.560 km
极远距离
4.542488E-6 低风险 0.48
CDM_260912-153405-751206-745721
2026-09-12T
15:34:31+0000
1.798 km
极远距离
2.950978E-6 低风险 0.44
与全量物体交会距离演化趋势
与全量物体交会风险概率演化趋势